Location: Unspecified
(50.0830°N, 0.0000°E)
Time: 02:12:25
(UTC+00:00)

N. Korean satellite - Pass Details

Date: 22 November 2019
Orbit: 455 x 507 km, 97.2° (Epoch: 13 December)

Event Time Altitude Azimuth Distance (km) Brightness Sun altitude
Rises 17:02:36 0° 171° (S) 2,574 10.4 -8.7°
Reaches altitude 10° 17:04:40 10° 173° (S) 1,702 9.5 -9.0°
Maximum altitude 17:08:20 71° 258° (WSW) 538 7.0 -9.5°
Drops below altitude 10° 17:12:04 10° 343° (NNW) 1,733 9.3 -10.1°
Sets 17:14:11 0° 346° (NNW) 2,625 10.2 -10.4°
